Regional Weather Roundup
Issued by NWS

Home | Current Version | Previous Version | Graphics & Text | Print | Product List | Glossary On
Versions: 1 2 3 4 5 6 7 8 9 10 11 12 13 14 15 16 17 18 19 20 21 22 23 24 25 26 27
000
ASUS45 KCYS 201710
RWRWY

WYOMING REGIONAL WEATHER ROUNDUP
NATIONAL WEATHER SERVICE CHEYENNE WY
1000 AM MST TUE FEB 20 2018

NOTE:  "FAIR" INDICATES FEW OR NO CLOUDS BELOW 12,000 FEET
WITH NO SIGNIFICANT WEATHER AND/OR OBSTRUCTIONS TO VISIBILITY.

WYZ001-201800-
YELLOWSTONE NATIONAL PARK

CITY           SKY/WX    TMP DP  RH WIND       PRES   REMARKS
LK YELLOWSTONE   N/A    -21 -24  86 CALM      29.78R
W YELLOWSTONE  NOT AVBL

$$
WYZ002>013-054>058-071-098>099-201800-
NORTHERN WYOMING

CITY           SKY/WX    TMP DP  RH WIND       PRES   REMARKS
JACKSON        CLOUDY     1  -8  66 NE3       29.87R HAZE
CODY           FAIR      -3 -17  51 S5        29.94S WCI -13
GREYBULL       FAIR     -15 -17  91 NW3       30.08S
WORLAND        FAIR     -12 -15  86 SW6       30.05R WCI -26
SHERIDAN       FAIR      -3 -14  59 CALM      30.01R
BUFFALO        FAIR      -4 -12  68 S7        29.92R WCI -18
GILLETTE       FAIR      -5 -11  75 SE5       29.99R WCI -16
HULETT         FAIR      -2  -8  78 MISG      30.00R
NEWCASTLE      FAIR      -8 -15  71 W9        30.02S WCI -25

$$
WYZ014>020-022>026-101>103-201800-
CENTRAL WYOMING

CITY           SKY/WX    TMP DP  RH WIND       PRES   REMARKS
BIG PINEY      FAIR      -2  -6  83 CALM      29.85S
PINEDALE       PTSUNNY   -4  -8  84 CALM      29.85R
DUBOIS           N/A    N/A N/A N/A MISG        N/A
LANDER         FAIR      -4  -9  79 CALM      29.90R
RIVERTON       FAIR      -4 -12  68 CALM      29.91R
CASPER         FAIR      -2 -11  65 W15       29.91R WCI -22
DOUGLAS        FAIR     -12 -16  82 CALM      29.97R

$$
WYZ021-027>030-104>119-201800-
SOUTHERN WYOMING

CITY           SKY/WX    TMP DP  RH WIND       PRES   REMARKS
EVANSTON       PTSUNNY    7   5  91 SW7       29.86R WCI  -5
ROCK SPRINGS   FAIR       1  -5  75 CALM      29.87R
DIXON          CLOUDY     2  -5  70 CALM      29.94S HAZE
RAWLINS        FAIR      -4  -9  79 CALM      29.85R
SARATOGA       FAIR       1  -9  60 CALM      29.85R
LARAMIE        FAIR      -8  -9  95 CALM      29.77R
CHEYENNE       FAIR       2  -3  80 CALM      29.85R
TORRINGTON     FAIR       0  -8  69 N7        30.02R WCI -13
PINE BLUFFS    FAIR       0  -9  65 SW3       29.97R

$$




USA.gov is the U.S. government's official web portal to all federal, state and local government web resources and services.